contact:dominique.lefevre@mio.osupytheas.fr, maurice.libes@osupytheas.fr, didier.mallarino@osupytheas.fr
Project:EMSO http://www.emso-fr.org/EMSO-France
Depth: 2436.0 m
Title:EMSO Ligure Ouest : Data MII capteur OXYGEN
DateTime,Latitude,Longitude,Optode-Type,Optode_Serial,Oxygen,Saturation_Oxygen,Temperature
DateTime,Latitude,Longitude,Optode-Type,Optode_Serial,µmol.l-1,%,degC
2017-11-13T00:01:14,42.805,6.029,4330,1995,197.630,60.436,13.286
2017-11-13T00:04:14,42.805,6.029,4330,1995,197.701,60.457,13.286
2017-11-13T00:07:14,42.805,6.029,4330,1995,197.601,60.426,13.286
2017-11-13T00:10:14,42.805,6.029,4330,1995,197.715,60.461,13.286
2017-11-13T00:13:14,42.805,6.029,4330,1995,197.681,60.451,13.286
2017-11-13T00:16:14,42.805,6.029,4330,1995,197.706,60.458,13.286
2017-11-13T00:19:14,42.805,6.029,4330,1995,197.678,60.449,13.286
2017-11-13T00:22:14,42.805,6.029,4330,1995,197.647,60.440,13.286
2017-11-13T00:25:14,42.805,6.029,4330,1995,197.728,60.465,13.286
2017-11-13T00:28:14,42.805,6.029,4330,1995,197.683,60.451,13.286
2017-11-13T00:31:14,42.805,6.029,4330,1995,197.697,60.455,13.286
2017-11-13T00:34:14,42.805,6.029,4330,1995,197.662,60.445,13.286
2017-11-13T00:37:14,42.805,6.029,4330,1995,197.717,60.461,13.286
2017-11-13T00:40:14,42.805,6.029,4330,1995,197.629,60.434,13.286
2017-11-13T00:43:14,42.805,6.029,4330,1995,197.666,60.446,13.286
2017-11-13T00:46:14,42.805,6.029,4330,1995,197.761,60.475,13.286
2017-11-13T00:49:14,42.805,6.029,4330,1995,197.751,60.472,13.286
2017-11-13T00:52:14,42.805,6.029,4330,1995,197.746,60.470,13.286
2017-11-13T00:55:14,42.805,6.029,4330,1995,197.677,60.449,13.286
2017-11-13T00:58:14,42.805,6.029,4330,1995,197.800,60.487,13.286
2017-11-13T01:01:14,42.805,6.029,4330,1995,197.780,60.481,13.286
2017-11-13T01:04:14,42.805,6.029,4330,1995,197.766,60.476,13.286
2017-11-13T01:07:14,42.805,6.029,4330,1995,197.756,60.473,13.285
2017-11-13T01:10:14,42.805,6.029,4330,1995,197.763,60.475,13.286
2017-11-13T01:13:14,42.805,6.029,4330,1995,197.821,60.493,13.285
2017-11-13T01:16:14,42.805,6.029,4330,1995,197.767,60.477,13.286
2017-11-13T01:19:14,42.805,6.029,4330,1995,197.825,60.494,13.286
2017-11-13T01:22:14,42.805,6.029,4330,1995,197.777,60.480,13.286
2017-11-13T01:25:14,42.805,6.029,4330,1995,197.700,60.456,13.286
2017-11-13T01:28:14,42.805,6.029,4330,1995,197.815,60.491,13.286
2017-11-13T01:31:14,42.805,6.029,4330,1995,197.822,60.493,13.285
2017-11-13T01:34:14,42.805,6.029,4330,1995,197.813,60.491,13.286
2017-11-13T01:37:14,42.805,6.029,4330,1995,197.887,60.513,13.286
2017-11-13T01:40:14,42.805,6.029,4330,1995,197.858,60.504,13.285
2017-11-13T01:43:14,42.805,6.029,4330,1995,198.016,60.553,13.286
2017-11-13T01:46:14,42.805,6.029,4330,1995,197.991,60.545,13.286
2017-11-13T01:49:14,42.805,6.029,4330,1995,198.042,60.561,13.285
2017-11-13T01:52:14,42.805,6.029,4330,1995,198.006,60.549,13.285
2017-11-13T01:55:14,42.805,6.029,4330,1995,198.184,60.604,13.285
2017-11-13T01:58:14,42.805,6.029,4330,1995,198.238,60.620,13.285
2017-11-13T02:01:14,42.805,6.029,4330,1995,198.206,60.611,13.286
2017-11-13T02:04:14,42.805,6.029,4330,1995,198.224,60.616,13.286
2017-11-13T02:07:14,42.805,6.029,4330,1995,198.183,60.604,13.286
2017-11-13T02:10:14,42.805,6.029,4330,1995,198.249,60.624,13.285
2017-11-13T02:13:14,42.805,6.029,4330,1995,198.340,60.652,13.285
2017-11-13T02:16:14,42.805,6.029,4330,1995,198.350,60.655,13.285
2017-11-13T02:19:14,42.805,6.029,4330,1995,198.403,60.671,13.285
2017-11-13T02:22:14,42.805,6.029,4330,1995,198.424,60.677,13.285
2017-11-13T02:25:14,42.805,6.029,4330,1995,198.430,60.679,13.285
2017-11-13T02:28:14,42.805,6.029,4330,1995,198.552,60.716,13.285
2017-11-13T02:31:14,42.805,6.029,4330,1995,198.537,60.712,13.285
2017-11-13T02:34:14,42.805,6.029,4330,1995,198.567,60.721,13.285
2017-11-13T02:37:14,42.805,6.029,4330,1995,198.573,60.723,13.285
2017-11-13T02:40:14,42.805,6.029,4330,1995,198.587,60.727,13.285
2017-11-13T02:43:14,42.805,6.029,4330,1995,198.584,60.726,13.285
2017-11-13T02:46:14,42.805,6.029,4330,1995,198.667,60.752,13.285
2017-11-13T02:49:14,42.805,6.029,4330,1995,198.690,60.759,13.285
2017-11-13T02:52:14,42.805,6.029,4330,1995,198.714,60.766,13.285
2017-11-13T02:55:14,42.805,6.029,4330,1995,198.651,60.746,13.285
2017-11-13T02:58:14,42.805,6.029,4330,1995,198.721,60.768,13.285
2017-11-13T03:01:14,42.805,6.029,4330,1995,198.771,60.783,13.285
2017-11-13T03:04:14,42.805,6.029,4330,1995,198.763,60.781,13.285
2017-11-13T03:07:14,42.805,6.029,4330,1995,198.722,60.769,13.285
2017-11-13T03:10:14,42.805,6.029,4330,1995,198.747,60.776,13.285
2017-11-13T03:13:14,42.805,6.029,4330,1995,198.697,60.761,13.285
2017-11-13T03:16:14,42.805,6.029,4330,1995,198.728,60.770,13.285
2017-11-13T03:19:14,42.805,6.029,4330,1995,198.785,60.788,13.285
2017-11-13T03:22:14,42.805,6.029,4330,1995,198.828,60.801,13.285
2017-11-13T03:25:14,42.805,6.029,4330,1995,198.722,60.769,13.285
2017-11-13T03:28:14,42.805,6.029,4330,1995,198.828,60.801,13.285
2017-11-13T03:31:14,42.805,6.029,4330,1995,198.768,60.783,13.285
2017-11-13T03:34:14,42.805,6.029,4330,1995,198.736,60.773,13.285
2017-11-13T03:37:14,42.805,6.029,4330,1995,198.711,60.765,13.285
2017-11-13T03:40:14,42.805,6.029,4330,1995,198.774,60.784,13.285
2017-11-13T03:43:14,42.805,6.029,4330,1995,198.741,60.774,13.285
2017-11-13T03:46:14,42.805,6.029,4330,1995,198.763,60.781,13.285
2017-11-13T03:49:14,42.805,6.029,4330,1995,198.801,60.793,13.285
2017-11-13T03:52:14,42.805,6.029,4330,1995,198.786,60.788,13.285
2017-11-13T03:55:14,42.805,6.029,4330,1995,198.781,60.786,13.285
2017-11-13T03:58:14,42.805,6.029,4330,1995,198.767,60.782,13.285
2017-11-13T04:01:14,42.805,6.029,4330,1995,198.863,60.811,13.285
2017-11-13T04:04:14,42.805,6.029,4330,1995,198.910,60.826,13.285
2017-11-13T04:07:14,42.805,6.029,4330,1995,198.885,60.818,13.285
2017-11-13T04:10:14,42.805,6.029,4330,1995,198.929,60.832,13.285
2017-11-13T04:13:14,42.805,6.029,4330,1995,198.869,60.813,13.285
2017-11-13T04:16:14,42.805,6.029,4330,1995,198.931,60.832,13.285
2017-11-13T04:19:14,42.805,6.029,4330,1995,198.847,60.807,13.285
2017-11-13T04:22:14,42.805,6.029,4330,1995,198.903,60.823,13.285
2017-11-13T04:25:14,42.805,6.029,4330,1995,199.012,60.857,13.285
2017-11-13T04:28:14,42.805,6.029,4330,1995,198.957,60.840,13.285
2017-11-13T04:31:14,42.805,6.029,4330,1995,198.880,60.817,13.285
2017-11-13T04:34:14,42.805,6.029,4330,1995,198.963,60.842,13.285
2017-11-13T04:37:14,42.805,6.029,4330,1995,199.018,60.859,13.285
2017-11-13T04:40:14,42.805,6.029,4330,1995,199.024,60.860,13.285
2017-11-13T04:43:14,42.805,6.029,4330,1995,199.018,60.859,13.285
2017-11-13T04:46:14,42.805,6.029,4330,1995,198.996,60.852,13.285
2017-11-13T04:49:14,42.805,6.029,4330,1995,198.991,60.851,13.285
2017-11-13T04:52:14,42.805,6.029,4330,1995,199.021,60.860,13.285
2017-11-13T04:55:14,42.805,6.029,4330,1995,198.984,60.849,13.285
2017-11-13T04:58:14,42.805,6.029,4330,1995,199.088,60.880,13.285
2017-11-13T05:01:14,42.805,6.029,4330,1995,199.057,60.871,13.285
2017-11-13T05:04:14,42.805,6.029,4330,1995,199.069,60.874,13.285
2017-11-13T05:07:14,42.805,6.029,4330,1995,199.110,60.887,13.285
2017-11-13T05:10:14,42.805,6.029,4330,1995,199.114,60.888,13.285
2017-11-13T05:13:14,42.805,6.029,4330,1995,199.106,60.886,13.285
2017-11-13T05:16:14,42.805,6.029,4330,1995,199.031,60.862,13.285
2017-11-13T05:19:14,42.805,6.029,4330,1995,199.096,60.882,13.285
2017-11-13T05:22:14,42.805,6.029,4330,1995,199.138,60.895,13.285
2017-11-13T05:25:14,42.805,6.029,4330,1995,199.111,60.887,13.285
2017-11-13T05:28:14,42.805,6.029,4330,1995,199.108,60.886,13.285
2017-11-13T05:31:14,42.805,6.029,4330,1995,199.204,60.915,13.285
2017-11-13T05:34:14,42.805,6.029,4330,1995,199.114,60.888,13.285
2017-11-13T05:37:14,42.805,6.029,4330,1995,199.125,60.891,13.285
2017-11-13T05:40:14,42.805,6.029,4330,1995,199.135,60.894,13.285
2017-11-13T05:43:14,42.805,6.029,4330,1995,199.152,60.900,13.285
2017-11-13T05:46:14,42.805,6.029,4330,1995,199.165,60.904,13.285
2017-11-13T05:49:14,42.805,6.029,4330,1995,199.150,60.899,13.285
2017-11-13T05:52:14,42.805,6.029,4330,1995,199.143,60.897,13.285
2017-11-13T05:55:14,42.805,6.029,4330,1995,199.133,60.894,13.285
2017-11-13T05:58:14,42.805,6.029,4330,1995,199.144,60.897,13.285
2017-11-13T06:01:14,42.805,6.029,4330,1995,199.145,60.897,13.285
2017-11-13T06:04:14,42.805,6.029,4330,1995,199.158,60.902,13.285
2017-11-13T06:07:14,42.805,6.029,4330,1995,199.070,60.875,13.285
2017-11-13T06:10:14,42.805,6.029,4330,1995,199.095,60.882,13.285
2017-11-13T06:13:14,42.805,6.029,4330,1995,199.079,60.877,13.285
2017-11-13T06:16:14,42.805,6.029,4330,1995,199.106,60.886,13.285
2017-11-13T06:19:14,42.805,6.029,4330,1995,199.119,60.890,13.285
2017-11-13T06:22:14,42.805,6.029,4330,1995,199.110,60.887,13.285
2017-11-13T06:25:14,42.805,6.029,4330,1995,199.034,60.864,13.285
2017-11-13T06:28:14,42.805,6.029,4330,1995,199.005,60.855,13.285
2017-11-13T06:31:14,42.805,6.029,4330,1995,199.048,60.868,13.285
2017-11-13T06:34:14,42.805,6.029,4330,1995,199.012,60.857,13.285
2017-11-13T06:37:14,42.805,6.029,4330,1995,198.935,60.833,13.285
2017-11-13T06:40:14,42.805,6.029,4330,1995,198.938,60.834,13.285
2017-11-13T06:43:14,42.805,6.029,4330,1995,198.839,60.804,13.285
2017-11-13T06:46:14,42.805,6.029,4330,1995,198.812,60.796,13.285
2017-11-13T06:49:14,42.805,6.029,4330,1995,198.765,60.782,13.285
2017-11-13T06:52:14,42.805,6.029,4330,1995,198.770,60.783,13.285
2017-11-13T06:55:14,42.805,6.029,4330,1995,198.722,60.768,13.285
2017-11-13T06:58:14,42.805,6.029,4330,1995,198.729,60.771,13.285
2017-11-13T07:01:14,42.805,6.029,4330,1995,198.722,60.768,13.285
2017-11-13T07:04:14,42.805,6.029,4330,1995,198.617,60.736,13.285
2017-11-13T07:07:14,42.805,6.029,4330,1995,198.626,60.739,13.285
2017-11-13T07:10:14,42.805,6.029,4330,1995,198.588,60.727,13.285
2017-11-13T07:13:14,42.805,6.029,4330,1995,198.564,60.720,13.285
2017-11-13T07:16:14,42.805,6.029,4330,1995,198.512,60.704,13.285
2017-11-13T07:19:14,42.805,6.029,4330,1995,198.505,60.702,13.285
2017-11-13T07:22:14,42.805,6.029,4330,1995,198.551,60.716,13.286
2017-11-13T07:25:14,42.805,6.029,4330,1995,198.541,60.713,13.286
2017-11-13T07:28:14,42.805,6.029,4330,1995,198.540,60.713,13.286
2017-11-13T07:31:14,42.805,6.029,4330,1995,198.504,60.702,13.285
2017-11-13T07:34:14,42.805,6.029,4330,1995,198.497,60.700,13.286
2017-11-13T07:37:14,42.805,6.029,4330,1995,198.501,60.701,13.285
2017-11-13T07:40:14,42.805,6.029,4330,1995,198.516,60.706,13.285
2017-11-13T07:43:14,42.805,6.029,4330,1995,198.548,60.715,13.286
2017-11-13T07:46:14,42.805,6.029,4330,1995,198.489,60.697,13.286
2017-11-13T07:49:14,42.805,6.029,4330,1995,198.532,60.711,13.286
2017-11-13T07:52:14,42.805,6.029,4330,1995,198.531,60.710,13.286
2017-11-13T07:55:14,42.805,6.029,4330,1995,198.510,60.704,13.285
2017-11-13T07:58:14,42.805,6.029,4330,1995,198.536,60.712,13.286
2017-11-13T08:01:14,42.805,6.029,4330,1995,198.560,60.719,13.285
2017-11-13T08:04:14,42.805,6.029,4330,1995,198.638,60.743,13.286
2017-11-13T08:07:14,42.805,6.029,4330,1995,198.611,60.735,13.286
2017-11-13T08:10:14,42.805,6.029,4330,1995,198.548,60.715,13.286
2017-11-13T08:13:14,42.805,6.029,4330,1995,198.561,60.720,13.286
2017-11-13T08:16:14,42.805,6.029,4330,1995,198.551,60.717,13.286
2017-11-13T08:19:14,42.805,6.029,4330,1995,198.628,60.740,13.285
2017-11-13T08:22:14,42.805,6.029,4330,1995,198.608,60.734,13.286
2017-11-13T08:25:14,42.805,6.029,4330,1995,198.658,60.749,13.286
2017-11-13T08:28:14,42.805,6.029,4330,1995,198.588,60.728,13.286
2017-11-13T08:31:14,42.805,6.029,4330,1995,198.501,60.701,13.286
2017-11-13T08:34:14,42.805,6.029,4330,1995,198.520,60.707,13.286
2017-11-13T08:37:14,42.805,6.029,4330,1995,198.520,60.707,13.286
2017-11-13T08:40:14,42.805,6.029,4330,1995,198.591,60.729,13.286
2017-11-13T08:43:14,42.805,6.029,4330,1995,198.564,60.720,13.286
2017-11-13T08:46:14,42.805,6.029,4330,1995,198.535,60.712,13.286
2017-11-13T08:49:14,42.805,6.029,4330,1995,198.445,60.684,13.286
2017-11-13T08:52:14,42.805,6.029,4330,1995,198.447,60.685,13.286
2017-11-13T08:55:14,42.805,6.029,4330,1995,198.415,60.675,13.286
2017-11-13T08:58:14,42.805,6.029,4330,1995,198.358,60.657,13.286
2017-11-13T09:01:14,42.805,6.029,4330,1995,198.444,60.684,13.286
2017-11-13T09:04:14,42.805,6.029,4330,1995,198.457,60.688,13.286
2017-11-13T09:07:14,42.805,6.029,4330,1995,198.461,60.689,13.286
2017-11-13T09:10:14,42.805,6.029,4330,1995,198.412,60.674,13.286
2017-11-13T09:13:14,42.805,6.029,4330,1995,198.357,60.657,13.286
2017-11-13T09:16:14,42.805,6.029,4330,1995,198.372,60.662,13.286
2017-11-13T09:19:14,42.805,6.029,4330,1995,198.388,60.667,13.286
2017-11-13T09:22:14,42.805,6.029,4330,1995,198.304,60.641,13.286
2017-11-13T09:25:14,42.805,6.029,4330,1995,198.343,60.653,13.286
2017-11-13T09:28:14,42.805,6.029,4330,1995,198.393,60.668,13.286
2017-11-13T09:31:14,42.805,6.029,4330,1995,198.434,60.681,13.286
2017-11-13T09:34:14,42.805,6.029,4330,1995,198.466,60.690,13.286
2017-11-13T09:37:14,42.805,6.029,4330,1995,198.461,60.689,13.286
2017-11-13T09:40:14,42.805,6.029,4330,1995,198.394,60.668,13.286
2017-11-13T09:43:14,42.805,6.029,4330,1995,198.443,60.683,13.286
2017-11-13T09:46:14,42.805,6.029,4330,1995,198.507,60.703,13.286
2017-11-13T09:49:14,42.805,6.029,4330,1995,198.497,60.700,13.286
2017-11-13T09:52:14,42.805,6.029,4330,1995,198.483,60.696,13.286
2017-11-13T09:55:14,42.805,6.029,4330,1995,198.440,60.682,13.286
2017-11-13T09:58:14,42.805,6.029,4330,1995,198.475,60.693,13.286
2017-11-13T10:01:14,42.805,6.029,4330,1995,198.423,60.677,13.286
2017-11-13T10:04:14,42.805,6.029,4330,1995,198.507,60.703,13.286
2017-11-13T10:07:14,42.805,6.029,4330,1995,198.430,60.680,13.286
2017-11-13T10:10:14,42.805,6.029,4330,1995,198.314,60.644,13.286
2017-11-13T10:13:14,42.805,6.029,4330,1995,198.439,60.683,13.286
2017-11-13T10:16:14,42.805,6.029,4330,1995,198.328,60.649,13.286
2017-11-13T10:19:14,42.805,6.029,4330,1995,198.309,60.643,13.286
2017-11-13T10:22:14,42.805,6.029,4330,1995,198.310,60.643,13.286
2017-11-13T10:25:14,42.805,6.029,4330,1995,198.275,60.632,13.286
2017-11-13T10:28:14,42.805,6.029,4330,1995,198.274,60.632,13.286
2017-11-13T10:31:14,42.805,6.029,4330,1995,198.168,60.600,13.286
2017-11-13T10:34:14,42.805,6.029,4330,1995,198.163,60.599,13.286
2017-11-13T10:37:14,42.805,6.029,4330,1995,198.142,60.592,13.286
2017-11-13T10:40:14,42.805,6.029,4330,1995,198.188,60.606,13.286
2017-11-13T10:43:14,42.805,6.029,4330,1995,198.115,60.583,13.286
2017-11-13T10:46:14,42.805,6.029,4330,1995,198.025,60.556,13.286
2017-11-13T10:49:14,42.805,6.029,4330,1995,197.934,60.528,13.286
2017-11-13T10:52:14,42.805,6.029,4330,1995,197.966,60.538,13.286
2017-11-13T10:55:14,42.805,6.029,4330,1995,197.939,60.530,13.286
2017-11-13T10:58:14,42.805,6.029,4330,1995,197.895,60.517,13.286
2017-11-13T11:01:14,42.805,6.029,4330,1995,197.860,60.506,13.286
2017-11-13T11:04:14,42.805,6.029,4330,1995,197.857,60.505,13.286
2017-11-13T11:07:14,42.805,6.029,4330,1995,197.712,60.461,13.286
2017-11-13T11:10:14,42.805,6.029,4330,1995,197.813,60.492,13.286
2017-11-13T11:13:14,42.805,6.029,4330,1995,197.675,60.450,13.286
2017-11-13T11:16:14,42.805,6.029,4330,1995,197.620,60.433,13.287
2017-11-13T11:19:14,42.805,6.029,4330,1995,197.609,60.430,13.287
2017-11-13T11:22:14,42.805,6.029,4330,1995,197.604,60.428,13.287
2017-11-13T11:25:14,42.805,6.029,4330,1995,197.398,60.366,13.287
2017-11-13T11:28:14,42.805,6.029,4330,1995,197.374,60.357,13.286
2017-11-13T11:31:14,42.805,6.029,4330,1995,197.466,60.386,13.286
2017-11-13T11:34:14,42.805,6.029,4330,1995,197.399,60.366,13.287
2017-11-13T11:37:14,42.805,6.029,4330,1995,197.396,60.364,13.286
2017-11-13T11:40:14,42.805,6.029,4330,1995,197.313,60.339,13.287
2017-11-13T11:43:14,42.805,6.029,4330,1995,197.230,60.314,13.287
2017-11-13T11:46:14,42.805,6.029,4330,1995,197.196,60.304,13.287
2017-11-13T11:49:14,42.805,6.029,4330,1995,197.281,60.330,13.287
2017-11-13T11:52:14,42.805,6.029,4330,1995,197.226,60.313,13.287
2017-11-13T11:55:14,42.805,6.029,4330,1995,197.300,60.336,13.287
2017-11-13T11:58:14,42.805,6.029,4330,1995,197.149,60.290,13.287
2017-11-13T12:01:14,42.805,6.029,4330,1995,197.031,60.254,13.287
2017-11-13T12:04:14,42.805,6.029,4330,1995,196.969,60.236,13.288
2017-11-13T12:07:14,42.805,6.029,4330,1995,196.873,60.207,13.288
2017-11-13T12:10:14,42.805,6.029,4330,1995,196.693,60.152,13.288
2017-11-13T12:13:14,42.805,6.029,4330,1995,196.432,60.074,13.290
2017-11-13T12:16:14,42.805,6.029,4330,1995,196.315,60.037,13.289
2017-11-13T12:19:14,42.805,6.029,4330,1995,196.191,60.001,13.290
2017-11-13T12:22:14,42.805,6.029,4330,1995,195.914,59.919,13.292
2017-11-13T12:25:14,42.805,6.029,4330,1995,195.733,59.863,13.292
2017-11-13T12:28:14,42.805,6.029,4330,1995,195.784,59.876,13.290
2017-11-13T12:31:14,42.805,6.029,4330,1995,195.663,59.841,13.292
2017-11-13T12:34:14,42.805,6.029,4330,1995,195.573,59.814,13.292
2017-11-13T12:37:14,42.805,6.029,4330,1995,195.592,59.823,13.294
2017-11-13T12:40:14,42.805,6.029,4330,1995,195.564,59.814,13.294
2017-11-13T12:43:14,42.805,6.029,4330,1995,195.786,59.882,13.294
2017-11-13T12:46:14,42.805,6.029,4330,1995,195.922,59.927,13.297
2017-11-13T12:49:14,42.805,6.029,4330,1995,195.856,59.901,13.292
2017-11-13T12:52:14,42.805,6.029,4330,1995,195.608,59.826,13.292
2017-11-13T12:55:14,42.805,6.029,4330,1995,195.440,59.773,13.292
2017-11-13T12:58:14,42.805,6.029,4330,1995,195.244,59.711,13.290
2017-11-13T13:01:14,42.805,6.029,4330,1995,195.504,59.790,13.290
2017-11-13T13:04:14,42.805,6.029,4330,1995,195.542,59.803,13.291
2017-11-13T13:07:14,42.805,6.029,4330,1995,195.545,59.804,13.291
2017-11-13T13:10:14,42.805,6.029,4330,1995,195.408,59.763,13.291
2017-11-13T13:13:14,42.805,6.029,4330,1995,195.306,59.730,13.290
2017-11-13T13:16:14,42.805,6.029,4330,1995,195.463,59.779,13.291
2017-11-13T13:19:14,42.805,6.029,4330,1995,195.279,59.722,13.290
2017-11-13T13:22:14,42.805,6.029,4330,1995,195.132,59.677,13.290
2017-11-13T13:25:14,42.805,6.029,4330,1995,195.013,59.642,13.291
2017-11-13T13:28:14,42.805,6.029,4330,1995,195.101,59.669,13.291
2017-11-13T13:31:14,42.805,6.029,4330,1995,195.073,59.657,13.289
2017-11-13T13:34:14,42.805,6.029,4330,1995,194.906,59.605,13.288
2017-11-13T13:37:14,42.805,6.029,4330,1995,194.994,59.631,13.287
2017-11-13T13:40:14,42.805,6.029,4330,1995,195.078,59.658,13.288
2017-11-13T13:43:14,42.805,6.029,4330,1995,195.402,59.759,13.290
2017-11-13T13:46:14,42.805,6.029,4330,1995,195.434,59.767,13.289
2017-11-13T13:49:14,42.805,6.029,4330,1995,195.310,59.728,13.288
2017-11-13T13:52:14,42.805,6.029,4330,1995,195.336,59.737,13.288
2017-11-13T13:55:14,42.805,6.029,4330,1995,195.395,59.754,13.288
2017-11-13T13:58:14,42.805,6.029,4330,1995,195.326,59.733,13.288
2017-11-13T14:01:14,42.805,6.029,4330,1995,195.530,59.796,13.288
2017-11-13T14:04:14,42.805,6.029,4330,1995,195.570,59.808,13.288
2017-11-13T14:07:14,42.805,6.029,4330,1995,195.536,59.798,13.288
2017-11-13T14:10:14,42.805,6.029,4330,1995,195.640,59.829,13.288
2017-11-13T14:13:14,42.805,6.029,4330,1995,195.931,59.918,13.288
2017-11-13T14:16:14,42.805,6.029,4330,1995,196.118,59.975,13.288
2017-11-13T14:19:14,42.805,6.029,4330,1995,196.390,60.058,13.287
2017-11-13T14:22:14,42.805,6.029,4330,1995,196.606,60.124,13.288
2017-11-13T14:25:14,42.805,6.029,4330,1995,196.497,60.090,13.287
2017-11-13T14:28:14,42.805,6.029,4330,1995,196.514,60.096,13.287
2017-11-13T14:31:14,42.805,6.029,4330,1995,196.439,60.072,13.287
2017-11-13T14:34:14,42.805,6.029,4330,1995,196.387,60.057,13.287
2017-11-13T14:37:14,42.805,6.029,4330,1995,196.125,59.976,13.287
2017-11-13T14:40:14,42.805,6.029,4330,1995,196.167,59.989,13.287
2017-11-13T14:43:14,42.805,6.029,4330,1995,196.073,59.960,13.287
2017-11-13T14:46:14,42.805,6.029,4330,1995,196.477,60.084,13.287
2017-11-13T14:49:14,42.805,6.029,4330,1995,196.348,60.044,13.287
2017-11-13T14:52:14,42.805,6.029,4330,1995,196.215,60.004,13.287
2017-11-13T14:55:14,42.805,6.029,4330,1995,196.172,59.990,13.287
2017-11-13T14:58:14,42.805,6.029,4330,1995,196.235,60.010,13.287
2017-11-13T15:01:14,42.805,6.029,4330,1995,196.302,60.030,13.287
2017-11-13T15:04:14,42.805,6.029,4330,1995,196.332,60.039,13.287
2017-11-13T15:07:14,42.805,6.029,4330,1995,196.355,60.046,13.286
2017-11-13T15:10:14,42.805,6.029,4330,1995,196.309,60.032,13.286
2017-11-13T15:13:14,42.805,6.029,4330,1995,196.395,60.059,13.287
2017-11-13T15:16:14,42.805,6.029,4330,1995,196.458,60.078,13.287
2017-11-13T15:19:14,42.805,6.029,4330,1995,196.329,60.038,13.286
2017-11-13T15:22:14,42.805,6.029,4330,1995,196.262,60.018,13.287
2017-11-13T15:25:14,42.805,6.029,4330,1995,196.662,60.140,13.286
2017-11-13T15:28:14,42.805,6.029,4330,1995,196.448,60.074,13.286
2017-11-13T15:31:14,42.805,6.029,4330,1995,196.607,60.123,13.286
2017-11-13T15:34:14,42.805,6.029,4330,1995,196.592,60.119,13.287
2017-11-13T15:37:14,42.805,6.029,4330,1995,196.454,60.076,13.286
2017-11-13T15:40:14,42.805,6.029,4330,1995,196.546,60.105,13.287
2017-11-13T15:43:14,42.805,6.029,4330,1995,196.562,60.110,13.287
2017-11-13T15:46:14,42.805,6.029,4330,1995,196.385,60.055,13.286
2017-11-13T15:49:14,42.805,6.029,4330,1995,196.349,60.044,13.287
2017-11-13T15:52:14,42.805,6.029,4330,1995,196.328,60.039,13.287
2017-11-13T15:55:14,42.805,6.029,4330,1995,196.506,60.093,13.287
2017-11-13T15:58:14,42.805,6.029,4330,1995,196.615,60.125,13.286
2017-11-13T16:01:14,42.805,6.029,4330,1995,196.580,60.115,13.287
2017-11-13T16:04:14,42.805,6.029,4330,1995,196.412,60.064,13.287
2017-11-13T16:07:14,42.805,6.029,4330,1995,196.316,60.034,13.286
2017-11-13T16:10:14,42.805,6.029,4330,1995,196.364,60.048,13.286
2017-11-13T16:13:14,42.805,6.029,4330,1995,196.332,60.038,13.286
2017-11-13T16:16:14,42.805,6.029,4330,1995,196.382,60.054,13.286
2017-11-13T16:19:14,42.805,6.029,4330,1995,196.653,60.137,13.286
2017-11-13T16:22:14,42.805,6.029,4330,1995,196.826,60.191,13.287
2017-11-13T16:25:14,42.805,6.029,4330,1995,196.748,60.166,13.286
2017-11-13T16:28:14,42.805,6.029,4330,1995,196.919,60.218,13.286
2017-11-13T16:31:14,42.805,6.029,4330,1995,196.945,60.226,13.286
2017-11-13T16:34:14,42.805,6.029,4330,1995,196.923,60.219,13.286
2017-11-13T16:37:13,42.805,6.029,4330,1995,196.970,60.233,13.286
2017-11-13T16:40:13,42.805,6.029,4330,1995,197.028,60.251,13.286
2017-11-13T16:43:13,42.805,6.029,4330,1995,196.856,60.199,13.286
2017-11-13T16:46:13,42.805,6.029,4330,1995,196.980,60.237,13.286
2017-11-13T16:49:13,42.805,6.029,4330,1995,196.990,60.239,13.286
2017-11-13T16:52:13,42.805,6.029,4330,1995,197.181,60.298,13.286
2017-11-13T16:55:13,42.805,6.029,4330,1995,197.016,60.248,13.286
2017-11-13T16:58:13,42.805,6.029,4330,1995,197.074,60.265,13.286
2017-11-13T17:01:13,42.805,6.029,4330,1995,197.109,60.276,13.286
2017-11-13T17:04:13,42.805,6.029,4330,1995,197.056,60.260,13.286
2017-11-13T17:07:13,42.805,6.029,4330,1995,197.052,60.259,13.286
2017-11-13T17:10:13,42.805,6.029,4330,1995,197.162,60.292,13.286
2017-11-13T17:13:13,42.805,6.029,4330,1995,197.088,60.269,13.286
2017-11-13T17:16:13,42.805,6.029,4330,1995,197.132,60.283,13.286
2017-11-13T17:19:13,42.805,6.029,4330,1995,197.482,60.390,13.286
2017-11-13T17:22:13,42.805,6.029,4330,1995,197.660,60.444,13.286
2017-11-13T17:25:13,42.805,6.029,4330,1995,197.799,60.487,13.286
2017-11-13T17:28:13,42.805,6.029,4330,1995,197.904,60.519,13.286
2017-11-13T17:31:13,42.805,6.029,4330,1995,197.960,60.536,13.286
2017-11-13T17:34:13,42.805,6.029,4330,1995,197.967,60.538,13.286
2017-11-13T17:37:13,42.805,6.029,4330,1995,198.088,60.575,13.286
2017-11-13T17:40:13,42.805,6.029,4330,1995,198.087,60.575,13.286
2017-11-13T17:43:13,42.805,6.029,4330,1995,198.139,60.590,13.286
2017-11-13T17:46:13,42.805,6.029,4330,1995,198.241,60.622,13.286
2017-11-13T17:49:13,42.805,6.029,4330,1995,198.254,60.626,13.286
2017-11-13T17:52:13,42.805,6.029,4330,1995,198.223,60.616,13.286
2017-11-13T17:55:13,42.805,6.029,4330,1995,198.182,60.604,13.286
2017-11-13T17:58:13,42.805,6.029,4330,1995,198.259,60.627,13.286
2017-11-13T18:01:13,42.805,6.029,4330,1995,198.223,60.616,13.286
2017-11-13T18:04:13,42.805,6.029,4330,1995,198.335,60.651,13.286
2017-11-13T18:07:13,42.805,6.029,4330,1995,198.325,60.647,13.286